Погода в Олонеце

Поиск расширенной информации на нашем сайте:

Полезная информация:

Новости сайта



02.01.2020
Опубликован Долгосрочный прогноз погоды по городам России и ближнего зарубежья на январь 2020 года.
Карты: Прогноз на январь и февраль 2020 года, Сравнение прогнозируемой аномалии приземной температуры воздуха на январь 2020 года по разным моделям.




Погода в Олонеце - сегодня

Время (UTC), дата Ветер
(°,м/с) 
Видим.   Явления Облачность Т
(°С)
Тd
(°С)
f(%) Тe
(°С)
Pmin
(гПа)
dP
(гПа)
Po
(мм)
O2
(г/м3)
Тmin Tmax R s Состояние
почвы
15 29.11.20 080 (В) 50000 м    10/10 500 м 
[Sc]
-1.5 -4.3 81 -3  1032.5  -0.7  773  314           
18 29.11.20 080 (В) 50000 м    10/10 330 м 
[St]
-2 -4.2 85 -5  1031  -1.5  772  314    -1.5       
21 29.11.20 100 (В) 50000 м    10/10 270 м 
[St]
-2 -3.8 87 -5  1030.3  -0.7  772  314           
00 30.11.20 100 (В) 50000 м    10/10 300 м 
[St]
-1.5 -3.5 86 -3  1028.6  -1.7  770  313           
03 30.11.20 110 (В) 50000 м    10/10 300 м 
[St]
-0.7 -2.7 86 -3  1026.9  -1.7  769  311  -2.5         
06 30.11.20 110 (В) 50000 м  в посл. час ливневой снег  10/10 540 м кучево-дожд. 
[Cb cap]
-0.1 -1.6 90 -2  1025.9  -1  768  310  -2.1    0.3     
09 30.11.20 110 (В) 50000 м  в посл. час ливневой снег  10/10 300 м 
[St]
+0.9 -0.7 89 1025  -0.8  768  308           
12 30.11.20 130 (ЮВ) 9000 м  слаб. дождь{ливн. осадки}  10/10 270 м 
[Frnb|Ns]
+0.9 -0.2 92 -1  1023.3  -1.7  766  308           
15 30.11.20 120 (ЮВ) 6000 м  слаб. снег{дождь}  10/10 270 м 
[Frnb|Ns]
+0.3 -0.6 94 1021.7  -1.6  765  308         
18 30.11.20 140 (ЮВ) 5000 м  слаб. снег{дождь}  10/10 180 м 
[Frnb|Ns]
+0 -0.6 96 -1  1020  -1.7  764  308    +1.1     
21 30.11.20 160 (Ю) 6000 м  слаб. снег  10/10 240 м 
[Frnb|Ns]
+0.1 -0.5 96 -2  1020.4  0.4  764  308           
00 01.12.20 170 (Ю) 50000 м  {снег}  10/10 330 м 
[St]
-0.2 -1.7 90 -3  1020.6  0.2  764  308           
03 01.12.20 160 (Ю) 50000 м  [диам. отлож. мокр. снега 8 мм]  10/10 1200 м 
[Sc]
-0.8 -2.4 89 -3  1020.4  -0.2  764  309  -0.8       
06 01.12.20 170 (Ю) 5000 м  слаб. снег [диам. отлож. мокр. снега 8 мм]  10/10 180 м 
[Frnb|Ns]
-0.8 -1.8 93 -3  1020.5  0.1  764  309  -0.9    равномерный
сухой снег
100% 
09 01.12.20 170 (Ю) 6000 м  слаб. крупа{ливн. осадки, снег}  10/10 400 м кучево-дожд. 
[Cb cap]
+0 -1 93 -2  1021.5  765  308           
12 01.12.20 190 (Ю) 50000 м  {ливн. осадки, снег}  10/10 1080 м кучево-дожд. 
[Cb calv]
+0.5 -1.1 89 -1  1022.6  1.1  766  308           
15 01.12.20 200 (Ю) 6{10}  5000 м  слаб. снег  10/0 средняя 
[As op]
+1.1 -0.5 89 -2  1023.5  0.9  767  308         
18 01.12.20 210 (ЮЗ) 6-10{12}  5000 м  слаб. снег  10/10 480 м 
[Ns]
+1.2 -0.4 89 -2  1024.9  1.4  768  308    +1.4     
21 01.12.20 220 (ЮЗ) 6-10{11}  7000 м  слаб. дождь{снег}  10/10 500 м 
[Ns]
+1.5 +0.1 90 -2  1026.5  1.6  769  308           
00 02.12.20 220 (ЮЗ) 5{10}  8000 м  слаб. дождь{снег}  10/10 480 м 
[Ns]
+1.9 +0.6 91 -1  1027.8  1.3  770  308           
03 02.12.20 220 (ЮЗ) 8000 м  слаб. дождь  10/10 420 м 
[Ns]
+2.3 +1.1 92 1028.5  0.7  770  308  +0.8       
06 02.12.20 210 (ЮЗ) 9000 м  слаб. дождь  10/10 400 м 
[Ns]
+2.2 +1 92 1029.4  0.9  771  308  +1.1    <0.5  мокрый или
старый снег
10-40% 
09 02.12.20 210 (ЮЗ) 8000 м  слаб. дождь  10/10 540 м 
[Ns]
+2.3 +1.1 92 1030.7  1.3  772  308           
12 02.12.20 210 (ЮЗ) 50000 м  {дождь}  10/10 500 м 
[Sc]
+2.4 +0.8 89 +1  1031.3  0.6  772  308           
15 02.12.20 190 (Ю) 50000 м    10/10 540 м 
[Sc]
+1.2 -0.3 90 1031.7  0.3  773  310      0.4     
Время (UTC), дата Ветер
(°,м/с) 
Видим.   Явления Облачность Т
(°С)
Тd
(°С)
f(%) Тe
(°С)
Pmin
(гПа)
dP
(гПа)
Po
(мм)
O2
(г/м3)
Тmin Tmax R s Состояние
почвы

Для получения пояснительной информации подведите курсор к названию столбца.

ПОГОДА в Олонеце - архив

Всё, что Вы хотите узнать о погоде в Олонеце - удобно и подробно!

Выберите нужную дату (начиная с 1 января 2019* года) и нажмите кнопку "Найти".
Будут отображены архивные сводки погоды по пункту Олонец, начиная с указанной даты.


Отображать данные в формате CSV (для использования в таблицах Excel)


Внимание! Наш архив погоды предназначен исключительно для личного некоммерческого использования в познавательных целях. Если Вам необходимы официальные справки о состоянии погоды (для производственных, юридических, коммерческих и т.п. целей), обращайтесь в органы Росгидромета.

*Примечание: данная дата относится к архиву по метеостанциям СССР (Россия, СНГ, Балтия).
Архив по метеостанциям Зарубежной Европы и Азии (кроме Китая) хранится 10 дней, по другим регионам земного шара (Китай, Африка, Америка, Австралия, Океания) - 1 день.

Олонец - район местоположения метеостанции


Название, широта, долгота, высота метеостанции:
Олонец 61°ш. 33°д. 12 м над ур. моря [Российская Федерация]

Дополнительная информация

В oтличие oт бoльшинства пoгoдных сайтoв мы публикуем пoдрoбную метеoинфoрмацию в детальнoм прoфессиoнальнoм фoрмате.

Характеристики температуры и влажнoсти вoздуха измеряются на высoте 2 м в тени вдали oт зданий и деревьев.
Скoрoсть ветра измеряется на высoте 10 м (на урoвне рoста челoвека скoрoсть ветра ниже в 1.5-2 раза). Если метеoстанция нахoдится в гoрoде или в лесу, тo скoрoсть ветра занижена на 2-4 м/с пo сравнению с oткрытым местoм. Скoрoсть ветра над акватoриями крупных рек и oзёр, а также на вершинах хoлмoв на 2-5 м/с выше, чем в oбычных услoвиях.
Атмoсфернoе давление в разных тoчках местнoсти мoжет значительнo oтличаться oт давления на метеoстанции, в зависимoсти oт услoвий рельефа (при пoдъёме на 10 м давление пoнижается примернo на 1 мм рт.ст.).